Location: Newark
(48.6461°N, 4.3644°W)
Time: 15:00:33
(UTC+00:00)

Transit 4A - Pass Details

Date: 27 January 2020
Orbit: 872 x 973 km, 66.8° (Epoch: 22 February)

Event Time Altitude Azimuth Distance (km) Brightness Sun altitude
Rises 09:57:37 0° 291° (WNW) 3,505 10.4 14.7°
Reaches altitude 10° 10:01:28 10° 315° (NW) 2,550 9.7 15.1°
Maximum altitude 10:04:33 14° 347° (NNW) 2,245 9.5 15.4°
Drops below altitude 10° 10:07:37 10° 19° (NNE) 2,535 9.9 15.7°
Sets 10:11:27 0° 44° (NE) 3,471 10.8 16.1°
